Terminal Aerodrome Forecast
Issued by NWS Milwaukee/Sullivan, WI

Home | Current Version | Previous Version | Text Only | Print | Product List | Glossary On
Versions: 1 2 3 4 5 6 7 8 9 10 11 12 13 14 15 16 17 18 19 20 21 22 23 24 25 26 27 28 29 30 31 32 33 34 35 36 37 38 39 40 41 42 43 44 45 46 47 48 49 50
000
FTUS43 KMKX 192019 AAA
TAFMSN
TAF AMD
KMSN 192019Z 1920/2018 19012G22KT P6SM SCT150
     FM200600 20012KT P6SM BKN040 WS020/22045KT
     FM200900 21010G21KT P6SM VCSH BKN030
     FM201100 21010G20KT P6SM VCSH BKN015
     FM201500 24010G19KT P6SM BKN015
     FM201700 25011G19KT P6SM BKN100=

USA.gov is the U.S. government's official web portal to all federal, state and local government web resources and services.